Change the Weather History Date:

Wednesday, March 27, 2013

  Actual Average Record
Temperature  
Mean Temperature 38 °F 33 °F  
Max Temperature 44 °F 43 °F 75 °F (1945)
Min Temperature 31 °F 24 °F 3 °F (1996)
Degree Days  
Heating Degree Days 27 32  
Month to date heating degree days 1037 1000  
Since 1 July heating degree days 6347 6732  
Cooling Degree Days 0 0  
Month to date cooling degree days 0 0  
Year to date cooling degree days 0 0  
Moisture  
Dew Point 25 °F    
Average Humidity 64    
Maximum Humidity 78    
Minimum Humidity 49    
Precipitation  
Precipitation T in 0.06 in 0.62 in (1991)
Month to date precipitation 1.32 1.60  
Year to date precipitation 5.80 4.58  
Snow  
Snow T in 0.30 in 4.00 in (1948)
Month to date snowfall 7.2 11.0  
Since 1 July snowfall 45.5 77.1  
Snow Depth 2.00 in    
Sea Level Pressure  
Sea Level Pressure 30.11 in    
Wind  
Wind Speed 10 mph (NW)    
Max Wind Speed 22 mph    
Max Gust Speed 26 mph    
Visibility 10 miles    
Events Snow    
T = Trace of Precipitation, MM = Missing Value Source: NWS Daily Summary

Daily Weather History Graph

Daily Weather History Graph

Search for Another Location

Airport or City:

Trip Planner

Search our weather history database for the weather conditions in past years. The results will help you decide how hot, cold, wet, or windy it might be!

Date:

Astronomy

Mar. 27, 2013 Rise Set
Actual Time 7:23 AM EDT 7:56 PM EDT
Civil Twilight 6:54 AM EDT 8:25 PM EDT
Nautical Twilight 6:19 AM EDT 9:00 PM EDT
Astronomical Twilight 5:43 AM EDT 9:36 PM EDT
Moon 8:42 PM EDT (3/27) 7:12 AM EDT (3/27)
Length of Visible Light 13h 31m
Length of Day
12h 32m
Full, 100% of the Moon is Illuminated
Mar 27
Full
Apr 3
Last Quarter
Apr 10
New
Apr 18
First Quarter
Apr 25
Full

Hourly Weather History & Observations

Time (EDT) Temp. Windchill Dew Point Humidity Pressure Visibility Wind Dir Wind Speed Gust Speed Precip Events Conditions
12:54 AM 34.0 °F 28.0 °F 23.0 °F 64% 30.08 in 10.0 mi WNW 6.9 mph - N/A   Overcast
1:54 AM 33.1 °F 27.7 °F 24.1 °F 70% 30.08 in 10.0 mi West 5.8 mph - N/A   Overcast
2:54 AM 32.0 °F 24.8 °F 25.0 °F 75% 30.08 in 10.0 mi West 8.1 mph - N/A   Overcast
3:54 AM 32.0 °F 26.4 °F 25.0 °F 75% 30.07 in 10.0 mi Variable 5.8 mph - N/A   Overcast
4:54 AM 32.0 °F 26.4 °F 25.0 °F 75% 30.07 in 10.0 mi WNW 5.8 mph - N/A   Overcast
5:54 AM 32.0 °F 25.6 °F 25.0 °F 75% 30.08 in 10.0 mi WNW 6.9 mph - N/A   Overcast
6:54 AM 30.9 °F 24.3 °F 25.0 °F 79% 30.09 in 10.0 mi West 6.9 mph - N/A   Mostly Cloudy
7:54 AM 30.9 °F 23.5 °F 25.0 °F 79% 30.10 in 10.0 mi WNW 8.1 mph - N/A   Partly Cloudy
8:01 AM 30.2 °F 23.4 °F 24.8 °F 80% 30.08 in 10.0 mi WNW 6.9 mph - N/A   Mostly Cloudy
8:54 AM 30.9 °F 24.3 °F 25.0 °F 79% 30.12 in 10.0 mi Variable 6.9 mph - N/A   Mostly Cloudy
9:54 AM 33.1 °F 25.5 °F 25.0 °F 72% 30.12 in 10.0 mi WNW 9.2 mph 16.1 mph N/A   Mostly Cloudy
10:54 AM 36.0 °F 26.3 °F 24.1 °F 62% 30.11 in 10.0 mi NW 16.1 mph 23.0 mph N/A   Mostly Cloudy
11:54 AM 37.9 °F 30.0 °F 25.0 °F 60% 30.11 in 10.0 mi NNW 12.7 mph 21.9 mph N/A   Mostly Cloudy
12:54 PM 39.0 °F 30.6 °F 26.1 °F 60% 30.12 in 10.0 mi North 15.0 mph - N/A   Mostly Cloudy
1:54 PM 39.9 °F 31.4 °F 25.0 °F 55% 30.12 in 10.0 mi NNW 16.1 mph - N/A   Mostly Cloudy
2:54 PM 39.9 °F 32.1 °F 26.1 °F 58% 30.12 in 10.0 mi NNW 13.8 mph - N/A   Mostly Cloudy
3:54 PM 43.0 °F 35.7 °F 26.1 °F 51% 30.11 in 10.0 mi NNW 15.0 mph 20.7 mph N/A   Scattered Clouds
4:54 PM 42.1 °F 36.1 °F 26.1 °F 53% 30.11 in 10.0 mi North 10.4 mph - N/A   Scattered Clouds
5:54 PM 41.0 °F 34.3 °F 26.1 °F 55% 30.12 in 10.0 mi NNW 11.5 mph - N/A   Overcast
6:54 PM 42.1 °F 34.9 °F 25.0 °F 51% 30.13 in 10.0 mi NW 13.8 mph 20.7 mph N/A   Mostly Cloudy
7:54 PM 41.0 °F 36.4 °F 25.0 °F 53% 30.14 in 10.0 mi WNW 6.9 mph 18.4 mph N/A   Overcast
8:54 PM 37.9 °F 32.1 °F 26.1 °F 62% 30.16 in 10.0 mi North 8.1 mph - N/A   Overcast
9:54 PM 37.0 °F 29.8 °F 26.1 °F 65% 30.18 in 10.0 mi NW 10.4 mph - N/A   Overcast
10:54 PM 35.1 °F 25.9 °F 28.0 °F 76% 30.18 in 8.0 mi NNW 13.8 mph 25.3 mph 0.00 in Snow Light Snow
11:54 PM 35.1 °F 27.4 °F 27.0 °F 72% 30.18 in 10.0 mi NW 10.4 mph - 0.00 in   Overcast